Caldwell, NJ

11:18 PM EDT on May 24, 2018 (GMT -0400)
Essex County

Weather History for KCDW - March, 2014

Change the Weather History Date:

Thursday, March 6, 2014

  Actual Average Record
Temperature  
Mean Temperature 20 °F -  
Max Temperature 28 °F 46 °F 73 °F (1964)
Min Temperature 12 °F 26 °F 3 °F (2015)
Degree Days  
Heating Degree Days 45    
Moisture  
Dew Point 2 °F    
Average Humidity 45    
Maximum Humidity 63    
Minimum Humidity 31    
Precipitation  
Precipitation 0.00 in - - ()
Sea Level Pressure  
Sea Level Pressure 30.58 in    
Wind  
Wind Speed 6 mph (NE)    
Max Wind Speed 10 mph    
Max Gust Speed -    
Visibility 10 miles    
Events      
Averages and records for this station are not official NWS values.
T = Trace of Precipitation, MM = Missing Value Source: NWS Daily Summary

Daily Weather History Graph

Daily Weather History Graph

Search for Another Location

Airport or City:

Astronomy

Mar. 06, 2014 Rise Set
Actual Time 6:23 AM EST 5:53 PM EST
Civil Twilight 5:56 AM EST 6:21 PM EST
Nautical Twilight 5:24 AM EST 6:53 PM EST
Astronomical Twilight 4:52 AM EST 7:25 PM EST
Moon 9:27 AM EST (3/6) No Moon Set
Length of Visible Light 12h 25m
Length of Day
11h 30m
Waxing Crescent, 32% of the Moon is Illuminated
Mar 6
Waxing Crescent
Mar 8
First Quarter
Mar 16
Full
Mar 23
Last Quarter
Mar 30
New

Hourly Weather History & Observations

Time (EST) Temp. Windchill Dew Point Humidity Pressure Visibility Wind Dir Wind Speed Gust Speed Precip Events Conditions
12:53 AM 19.9 °F 11.1 °F 5.0 °F 52% 30.51 in 10.0 mi NNE 6.9 mph - N/A   Clear
1:53 AM 18.0 °F 8.7 °F 1.0 °F 48% 30.54 in 10.0 mi NNE 6.9 mph - N/A   Clear
2:53 AM 17.1 °F 7.6 °F 1.0 °F 50% 30.55 in 10.0 mi NE 6.9 mph - N/A   Clear
3:53 AM 16.0 °F 6.3 °F -2.0 °F 45% 30.56 in 10.0 mi NE 6.9 mph - N/A   Clear
4:53 AM 14.0 °F 3.9 °F -2.0 °F 49% 30.58 in 10.0 mi NNE 6.9 mph - N/A   Clear
5:53 AM 12.9 °F 3.8 °F -2.0 °F 51% 30.61 in 10.0 mi NNE 5.8 mph - N/A   Clear
6:53 AM 12.9 °F 1.6 °F -2.0 °F 51% 30.62 in 10.0 mi NNE 8.1 mph - N/A   Clear
7:53 AM 14.0 °F 2.9 °F -2.9 °F 47% 30.65 in 10.0 mi NNE 8.1 mph - N/A   Clear
8:53 AM 16.0 °F 5.3 °F -2.9 °F 43% 30.66 in 10.0 mi NNE 8.1 mph - N/A   Clear
9:53 AM 19.0 °F 7.5 °F -2.9 °F 38% 30.67 in 10.0 mi ENE 10.4 mph - N/A   Clear
10:53 AM 21.9 °F 12.5 °F -2.9 °F 34% 30.66 in 10.0 mi NE 8.1 mph - N/A   Clear
11:53 AM 24.1 °F 15.2 °F -0.0 °F 35% 30.64 in 10.0 mi East 8.1 mph - N/A   Clear
12:53 PM 25.0 °F 18.1 °F 1.0 °F 36% 30.62 in 10.0 mi Variable 5.8 mph - N/A   Clear
1:53 PM 27.0 °F 21.6 °F -0.0 °F 31% 30.59 in 10.0 mi Variable 4.6 mph - N/A   Clear
2:53 PM 27.0 °F - -0.0 °F 31% 30.58 in 10.0 mi Calm Calm - N/A   Clear
3:53 PM 28.0 °F 22.8 °F 1.9 °F 33% 30.57 in 10.0 mi Variable 4.6 mph - N/A   Clear
4:53 PM 28.0 °F 21.7 °F 3.0 °F 34% 30.56 in 10.0 mi East 5.8 mph - N/A   Clear
5:53 PM 27.0 °F 21.6 °F 3.0 °F 36% 30.57 in 10.0 mi ESE 4.6 mph - N/A   Clear
6:53 PM 26.1 °F 20.5 °F 3.9 °F 39% 30.57 in 10.0 mi East 4.6 mph - N/A   Clear
7:53 PM 25.0 °F - 10.9 °F 55% 30.57 in 10.0 mi Calm Calm - N/A   Clear
8:53 PM 24.1 °F - 12.0 °F 60% 30.56 in 10.0 mi Calm Calm - N/A   Clear
9:53 PM 23.0 °F - 12.0 °F 63% 30.54 in 10.0 mi Calm Calm - N/A   Clear
10:53 PM 23.0 °F 18.4 °F 8.1 °F 53% 30.54 in 10.0 mi East 3.5 mph - N/A   Clear
11:53 PM 21.0 °F - 9.0 °F 60% 30.52 in 10.0 mi Calm Calm - N/A   Clear